EA4BPO Weather Reports


time (UTC)temp
C
wind
direction
speed
KPH
gust
KPH
rain 1hr
cm
rain 24hr
cm
rain mn
cm
humidity
%
barometer
mb
20260510211503 11 198 9.7 16.1 0.00 0.61 0.58 90 1013.3
20260510211025 11 196 9.7 16.1 0.00 0.61 0.58 90 1013.3
20260510210503 11 191 9.7 16.1 0.00 0.61 0.58 90 1013.1
20260510210004 11 197 8.0 16.1 0.00 0.61 0.58 90 1013.1
20260510205503 11 201 8.0 16.1 0.00 0.64 0.58 90 1013.2
20260510205024 11 195 9.7 17.7 0.00 0.66 0.58 90 1013.2
20260510204503 11 189 9.7 17.7 0.00 0.69 0.58 90 1013.1
20260510204003 11 185 9.7 17.7 0.00 0.74 0.58 90 1013.0
20260510203504 11 185 11.3 17.7 0.00 0.81 0.58 90 1012.9
20260510203024 11 188 9.7 16.1 0.00 0.81 0.58 90 1013.0
20260510202524 11 191 8.0 17.7 0.00 0.81 0.58 90 1012.8
20260510202024 11 196 9.7 17.7 0.00 0.81 0.58 90 1012.7
20260510201503 11 199 9.7 20.9 0.00 0.81 0.58 89 1012.7
20260510201024 11 197 9.7 20.9 0.00 0.81 0.58 89 1012.7
20260510200503 11 192 11.3 17.7 0.00 0.81 0.58 88 1012.3
20260510200004 11 189 11.3 22.5 0.00 0.81 0.58 88 1012.5
20260510195524 11 186 11.3 22.5 0.00 0.81 0.58 87 1012.5
20260510195003 11 190 11.3 20.9 0.00 0.81 0.58 86 1012.2
20260510194503 11 190 9.7 17.7 0.00 0.81 0.58 85 1012.3
20260510194003 12 187 9.7 17.7 0.00 0.81 0.58 84 1012.7
20260510193524 12 188 11.3 17.7 0.00 0.81 0.58 82 1012.1
20260510193004 12 197 9.7 16.1 0.00 0.81 0.58 81 1012.1
20260510192503 12 200 9.7 20.9 0.00 0.81 0.58 80 1012.2
20260510192003 12 193 9.7 20.9 0.00 0.81 0.58 80 1012.2
20260510191504 12 191 9.7 14.5 0.00 0.81 0.58 80 1012.0
20260510191004 12 196 8.0 17.7 0.00 0.81 0.58 80 1011.8
20260510190503 12 201 8.0 17.7 0.00 0.81 0.58 79 1012.0
20260510190004 12 203 9.7 16.1 0.00 0.81 0.58 78 1011.9
20260510185524 12 197 11.3 20.9 0.00 0.81 0.58 77 1011.5
20260510185003 12 198 11.3 22.5 0.00 0.81 0.58 76 1011.5
20260510184504 12 204 11.3 22.5 0.00 0.81 0.58 76 1011.8
20260510184003 12 193 9.7 20.9 0.00 0.81 0.58 77 1011.5
20260510183503 13 182 12.9 20.9 0.00 0.81 0.58 77 1011.6
20260510183003 13 187 12.9 25.7 0.00 0.81 0.58 77 1011.4
20260510182503 13 196 12.9 27.4 0.00 0.81 0.58 77 1011.4
20260510182003 13 195 12.9 27.4 0.00 0.81 0.58 78 1011.4
20260510181503 13 185 14.5 24.1 0.00 0.81 0.58 77 1011.6
20260510181003 13 186 12.9 24.1 0.00 0.81 0.58 77 1011.7
20260510180524 13 189 11.3 22.5 0.00 0.81 0.58 76 1011.7
20260510180003 13 197 12.9 27.4 0.00 0.81 0.58 74 1011.5
20260510175503 13 209 14.5 27.4 0.00 0.81 0.58 72 1011.7
20260510175003 13 214 14.5 25.7 0.00 0.81 0.58 70 1011.5
20260510174503 13 215 17.7 35.4 0.00 0.81 0.58 66 1011.7
20260510174003 13 209 17.7 35.4 0.00 0.81 0.58 66 1011.6
20260510173503 14 213 14.5 29.0 0.00 0.81 0.58 64 1011.3
20260510173025 14 218 14.5 29.0 0.00 0.81 0.58 64 1011.6
20260510172524 14 215 16.1 29.0 0.00 0.81 0.58 64 1011.5
20260510172003 13 220 17.7 35.4 0.00 0.81 0.58 64 1011.6
20260510171503 13 215 17.7 35.4 0.00 0.81 0.58 63 1011.5
20260510171003 14 220 16.1 30.6 0.00 0.81 0.58 63 1011.4
20260510170503 14 229 16.1 30.6 0.00 0.81 0.58 62 1011.7
20260510170003 14 230 17.7 33.8 0.00 0.81 0.58 62 1011.4
20260510165503 14 223 16.1 33.8 0.00 0.81 0.58 63 1011.7
20260510165003 15 213 14.5 35.4 0.00 0.81 0.58 62 1011.6
20260510164503 14 216 16.1 35.4 0.00 0.81 0.58 63 1011.4
20260510164003 14 219 16.1 29.0 0.00 0.81 0.58 64 1011.5
20260510163503 14 224 14.5 37.0 0.00 0.81 0.58 63 1011.2
20260510163003 14 222 16.1 38.6 0.00 0.84 0.58 65 1011.0
20260510162524 13 219 17.7 38.6 0.00 0.91 0.58 64 1011.4
20260510162003 14 216 16.1 29.0 0.00 1.02 0.58 66 1011.2
20260510161503 14 213 16.1 27.4 0.00 1.02 0.58 65 1011.3
20260510161024 13 215 16.1 27.4 0.00 1.02 0.58 67 1011.3
20260510160524 13 223 11.3 25.7 0.00 1.02 0.58 67 1011.6
20260510160003 13 222 11.3 27.4 0.00 1.02 0.58 71 1011.3
20260510155503 13 213 12.9 27.4 0.00 1.02 0.58 73 1011.5
20260510155003 13 213 12.9 24.1 0.00 1.02 0.58 74 1011.4
20260510154503 13 212 12.9 24.1 0.00 1.02 0.58 74 1011.3
20260510154003 13 208 11.3 20.9 0.00 1.02 0.58 76 1011.3
20260510153503 13 210 11.3 20.9 0.00 1.02 0.58 76 1011.3
20260510153005 13 219 8.0 17.7 0.00 1.02 0.58 76 1011.6
20260510152526 13 226 8.0 16.1 0.00 1.02 0.58 77 1011.5
20260510152005 13 211 8.0 14.5 0.00 1.02 0.58 78 1011.7
20260510151505 13 205 8.0 17.7 0.00 1.02 0.58 78 1011.6
20260510151005 13 207 9.7 20.9 0.00 1.02 0.58 78 1011.5
20260510150505 12 207 9.7 20.9 0.00 1.02 0.58 80 1011.8
20260510150026 12 214 9.7 17.7 0.03 1.02 0.58 80 1011.7
20260510145505 12 218 11.3 24.1 0.03 1.02 0.58 82 1011.8
20260510145005 12 210 9.7 24.1 0.03 1.04 0.58 82 1012.0
20260510144505 12 212 8.0 20.9 0.03 1.04 0.58 81 1011.9
20260510144005 12 232 8.0 20.9 0.03 1.04 0.58 83 1012.1
20260510143505 11 237 9.7 24.1 0.03 1.04 0.58 83 1011.9
20260510143026 11 245 11.3 24.1 0.03 1.04 0.58 83 1012.2
20260510142505 11 258 11.3 20.9 0.03 1.04 0.58 83 1012.2
20260510142005 11 247 9.7 20.9 0.03 1.04 0.58 84 1012.1
20260510141505 11 236 9.7 17.7 0.03 1.04 0.58 86 1011.9
20260510141005 11 242 9.7 17.7 0.03 1.04 0.58 87 1012.1
20260510140505 11 245 11.3 24.1 0.03 1.04 0.58 88 1012.1
20260510140005 11 245 11.3 24.1 0.00 1.02 0.56 87 1012.1
20260510135505 12 239 9.7 20.9 0.00 1.02 0.56 83 1011.9
20260510135005 12 214 14.5 37.0 0.00 1.02 0.56 79 1011.9
20260510134505 12 211 12.9 37.0 0.00 1.02 0.56 78 1012.0
20260510134005 12 227 12.9 29.0 0.00 1.02 0.56 77 1011.9
20260510133505 12 225 14.5 29.0 0.00 1.02 0.56 77 1011.8
20260510133005 12 214 14.5 27.4 0.00 1.02 0.56 76 1011.9
20260510132526 12 207 16.1 29.0 0.00 1.02 0.56 77 1011.7
20260510132005 12 211 14.5 29.0 0.00 1.02 0.56 77 1011.6
20260510131505 12 220 12.9 22.5 0.00 1.02 0.56 79 1011.7
20260510131004 12 227 11.3 20.9 0.00 1.02 0.56 78 1011.7
20260510130505 12 221 11.3 24.1 0.00 1.02 0.56 79 1011.8
20260510130005 12 204 11.3 24.1 0.00 1.02 0.56 80 1011.7
20260510125505 12 202 12.9 27.4 0.00 1.02 0.56 80 1011.7
20260510125005 11 210 12.9 27.4 0.00 1.07 0.56 81 1011.8
20260510124505 11 209 11.3 20.9 0.00 1.19 0.56 83 1011.8
20260510124026 11 213 11.3 20.9 0.00 1.35 0.56 84 1011.8
20260510123504 11 218 12.9 27.4 0.00 1.47 0.56 84 1011.9
20260510123005 11 215 14.5 27.4 0.03 1.50 0.56 84 1012.0
20260510122505 11 216 14.5 37.0 0.03 1.52 0.56 83 1012.3
20260510122005 11 218 14.5 37.0 0.08 1.52 0.56 82 1012.3
20260510121505 11 212 11.3 25.7 0.08 1.52 0.56 85 1012.3
20260510121005 11 214 9.7 17.7 0.08 1.52 0.56 88 1012.2
20260510120504 11 214 9.7 17.7 0.08 1.52 0.56 90 1012.0
20260510120005 10 216 9.7 20.9 0.08 1.52 0.56 91 1012.0
20260510115526 10 235 11.3 20.9 0.08 1.52 0.56 93 1012.1
20260510115005 10 241 8.0 16.1 0.08 1.52 0.56 94 1012.3
20260510114504 10 228 8.0 17.7 0.08 1.52 0.56 94 1012.1
20260510114005 10 227 8.0 17.7 0.08 1.52 0.56 94 1012.2
20260510113505 10 241 9.7 22.5 0.08 1.52 0.56 93 1012.2
20260510113005 10 248 12.9 22.5 0.08 1.50 0.53 93 1012.2
20260510112505 10 239 16.1 38.6 0.15 1.50 0.53 92 1012.7
20260510112004 10 225 16.1 38.6 0.15 1.45 0.48 92 1012.6
20260510111505 10 219 14.5 37.0 0.20 1.45 0.48 92 1012.3
20260510111026 10 217 11.3 24.1 0.20 1.45 0.48 94 1012.2
20260510110505 10 227 9.7 20.9 0.20 1.45 0.48 94 1012.1
20260510110005 10 240 11.3 20.9 0.20 1.45 0.48 94 1012.0
20260510105505 10 247 12.9 24.1 0.20 1.45 0.48 94 1012.1
20260510105004 9 255 14.5 27.4 0.20 1.45 0.48 93 1011.9
20260510104505 9 248 14.5 27.4 0.20 1.45 0.48 93 1011.9
20260510104005 9 240 16.1 33.8 0.20 1.45 0.48 92 1012.1
20260510103504 9 249 19.3 40.2 0.20 1.45 0.48 91 1011.9
20260510103005 10 228 19.3 40.2 0.18 1.45 0.46 91 1011.9
20260510102505 12 194 16.1 35.4 0.10 1.37 0.38 90 1011.6
20260510102005 12 190 14.5 27.4 0.05 1.32 0.33 88 1011.1
20260510101504 13 189 14.5 37.0 0.00 1.27 0.28 86 1010.8
20260510101026 12 175 17.7 37.0 0.00 1.27 0.28 86 1011.0
20260510100505 12 175 17.7 37.0 0.00 1.27 0.28 86 1011.1
20260510100005 12 181 16.1 33.8 0.00 1.27 0.28 87 1011.1
20260510095505 12 177 14.5 33.8 0.00 1.27 0.28 88 1011.2
20260510095005 12 185 14.5 27.4 0.00 1.27 0.28 87 1011.2
20260510094504 12 188 14.5 25.7 0.00 1.27 0.28 87 1011.3
20260510094005 12 180 12.9 24.1 0.00 1.27 0.28 86 1011.3
20260510093504 12 182 12.9 29.0 0.00 1.27 0.28 88 1011.7
20260510093004 12 184 12.9 29.0 0.00 1.27 0.28 89 1011.5
20260510092505 12 188 11.3 27.4 0.00 1.27 0.28 89 1011.5
20260510092004 11 192 12.9 27.4 0.03 1.27 0.28 89 1011.6
20260510091505 11 187 14.5 27.4 0.03 1.27 0.28 90 1011.6
20260510091026 11 184 12.9 24.1 0.03 1.27 0.28 93 1011.6
20260510090525 11 184 11.3 22.5 0.03 1.27 0.28 95 1011.6
20260510090004 11 177 12.9 25.7 0.03 1.27 0.28 96 1011.6
20260510085504 11 175 11.3 25.7 0.05 1.27 0.28 96 1011.8
20260510085004 11 179 9.7 17.7 0.05 1.27 0.28 97 1011.9
20260510084505 11 175 9.7 20.9 0.08 1.27 0.28 97 1011.7
20260510084004 11 170 9.7 20.9 0.08 1.27 0.28 97 1011.9
20260510083504 11 183 9.7 17.7 0.08 1.27 0.28 97 1011.9
20260510083004 11 190 8.0 17.7 0.08 1.27 0.28 97 1012.0
20260510082505 11 177 9.7 17.7 0.08 1.27 0.28 97 1012.0
20260510082004 11 172 9.7 17.7 0.05 1.24 0.25 97 1012.2
20260510081504 11 181 9.7 20.9 0.05 1.24 0.25 97 1012.0
20260510081005 10 179 9.7 20.9 0.05 1.24 0.25 96 1011.9
20260510080505 11 175 8.0 14.5 0.05 1.24 0.25 96 1011.9
20260510080005 10 192 6.4 14.5 0.05 1.24 0.25 96 1012.1
20260510075505 10 204 8.0 16.1 0.03 1.22 0.23 95 1012.0
20260510075004 11 192 11.3 17.7 0.03 1.22 0.23 95 1012.1
20260510074505 11 185 11.3 22.5 0.00 1.19 0.20 94 1012.2
20260510074004 11 190 12.9 24.1 0.00 1.19 0.20 93 1012.3
20260510073504 11 187 11.3 24.1 0.00 1.19 0.20 93 1012.1
20260510073004 11 187 11.3 20.9 0.00 1.19 0.20 92 1012.1
20260510072505 11 195 11.3 20.9 0.00 1.19 0.20 92 1012.2
20260510072004 11 191 11.3 24.1 0.00 1.19 0.20 92 1012.0
20260510071504 11 183 12.9 25.7 0.00 1.19 0.20 92 1012.1
20260510071004 11 180 12.9 25.7 0.00 1.19 0.20 92 1012.0
20260510070525 11 178 12.9 22.5 0.00 1.19 0.20 92 1012.0
20260510070005 10 181 11.3 22.5 0.00 1.19 0.20 93 1012.0
20260510065504 10 179 11.3 24.1 0.00 1.19 0.20 93 1012.0
20260510065004 10 179 9.7 24.1 0.00 1.19 0.20 93 1011.7
20260510064504 10 180 8.0 17.7 0.00 1.19 0.20 94 1012.1
20260510064005 10 181 6.4 14.5 0.00 1.19 0.20 94 1011.8
20260510063504 10 183 4.8 11.3 0.00 1.19 0.20 95 1011.9
20260510063004 10 188 4.8 11.3 0.00 1.19 0.20 95 1011.9
20260510062504 10 193 6.4 12.9 0.00 1.19 0.20 95 1011.8
20260510062004 10 194 8.0 12.9 0.00 1.19 0.20 95 1011.9
20260510061505 10 193 6.4 11.3 0.00 1.19 0.20 96 1011.9
20260510061004 9 184 6.4 14.5 0.00 1.19 0.20 96 1011.8
20260510060504 9 182 8.0 16.1 0.00 1.19 0.20 96 1011.8
20260510060005 9 184 6.4 16.1 0.00 1.19 0.20 96 1011.7
20260510055504 9 182 8.0 12.9 0.00 1.19 0.20 96 1011.6
20260510055004 9 186 8.0 17.7 0.00 1.19 0.20 96 1011.5
20260510054504 9 190 8.0 17.7 0.00 1.19 0.20 97 1011.7
20260510054005 9 183 6.4 16.1 0.00 1.19 0.20 97 1011.6
20260510053525 9 183 6.4 12.9 0.00 1.19 0.20 97 1011.5
20260510053004 9 188 6.4 12.9 0.00 1.19 0.20 97 1011.6
20260510052504 9 187 8.0 12.9 0.00 1.19 0.20 97 1011.6
20260510052004 9 186 6.4 12.9 0.00 1.19 0.20 97 1011.6
20260510051504 9 178 4.8 12.9 0.00 1.19 0.20 97 1011.8
20260510051004 9 164 3.2 9.7 0.00 1.19 0.20 97 1011.6
20260510050504 9 159 3.2 6.4 0.00 1.19 0.20 97 1011.8
20260510050005 9 159 3.2 6.4 0.00 1.19 0.20 98 1011.5
20260510045504 9 153 3.2 4.8 0.00 1.19 0.20 98 1011.6
20260510045004 9 159 3.2 6.4 0.00 1.19 0.20 98 1011.6
20260510044504 9 170 3.2 6.4 0.00 1.19 0.20 98 1011.5
20260510044004 9 167 1.6 6.4 0.00 1.19 0.20 98 1011.6
20260510043504 9 160 1.6 4.8 0.00 1.19 0.20 98 1011.6
20260510043004 9 162 3.2 4.8 0.00 1.19 0.20 98 1011.4
20260510042525 9 163 3.2 6.4 0.00 1.19 0.20 98 1011.5
20260510042025 9 170 4.8 6.4 0.00 1.19 0.20 98 1011.5
20260510041504 9 169 4.8 9.7 0.00 1.19 0.20 98 1011.7
20260510041004 9 160 4.8 9.7 0.00 1.19 0.20 98 1011.7
20260510040504 9 159 4.8 6.4 0.00 1.19 0.20 98 1011.7
20260510040004 9 159 4.8 6.4 0.00 1.19 0.20 98 1011.8
20260510035504 9 161 4.8 6.4 0.00 1.19 0.20 97 1011.7
20260510035004 9 164 4.8 9.7 0.00 1.19 0.20 97 1011.6
20260510034504 9 164 4.8 9.7 0.00 1.19 0.20 97 1011.7
20260510034025 9 166 4.8 9.7 0.00 1.19 0.20 97 1011.7
20260510033504 9 162 4.8 9.7 0.00 1.19 0.20 97 1011.9
20260510033025 9 161 4.8 9.7 0.00 1.19 0.20 97 1011.7
20260510032504 9 161 4.8 9.7 0.00 1.19 0.20 97 1011.8
20260510032004 9 166 4.8 9.7 0.00 1.19 0.20 97 1012.0
20260510031504 9 179 4.8 9.7 0.00 1.19 0.20 97 1012.0
20260510031025 9 186 4.8 9.7 0.00 1.19 0.20 97 1012.0
20260510030504 9 184 4.8 9.7 0.00 1.19 0.20 97 1012.0
20260510030004 9 190 3.2 9.7 0.00 1.19 0.20 97 1012.2
20260510025504 10 189 4.8 9.7 0.00 1.19 0.20 97 1012.0
20260510025004 10 188 4.8 9.7 0.00 1.19 0.20 96 1012.1
20260510024525 10 196 3.2 9.7 0.00 1.19 0.20 96 1012.3
20260510024004 10 191 4.8 9.7 0.00 1.19 0.20 96 1012.3
20260510023504 10 188 4.8 9.7 0.00 1.19 0.20 96 1012.2
20260510023004 10 191 4.8 9.7 0.00 1.19 0.20 96 1012.3
20260510022504 10 192 4.8 9.7 0.00 1.19 0.20 96 1012.1
20260510022004 10 191 3.2 6.4 0.00 1.19 0.20 96 1012.1
20260510021525 10 195 3.2 9.7 0.00 1.19 0.20 96 1012.1
20260510021004 10 209 4.8 9.7 0.00 1.19 0.20 95 1012.3
20260510020504 10 216 4.8 9.7 0.00 1.19 0.20 95 1012.0
20260510020025 10 206 4.8 6.4 0.00 1.19 0.20 95 1012.3
20260510015504 10 197 4.8 9.7 0.00 1.19 0.20 95 1012.3
20260510015004 10 196 4.8 9.7 0.00 1.19 0.20 95 1012.1
20260510014504 10 195 4.8 9.7 0.00 1.19 0.20 95 1012.1
20260510014025 10 198 3.2 9.7 0.00 1.19 0.20 95 1012.1
20260510013525 10 208 3.2 9.7 0.00 1.19 0.20 95 1012.0
20260510013004 10 208 4.8 12.9 0.00 1.19 0.20 95 1012.2
20260510012505 10 211 6.4 12.9 0.00 1.19 0.20 95 1012.5
20260510012004 10 210 4.8 11.3 0.00 1.19 0.20 95 1012.2
20260510011504 10 212 3.2 11.3 0.00 1.19 0.20 95 1012.2
20260510011025 10 215 4.8 9.7 0.00 1.19 0.20 95 1012.6
20260510010504 10 216 6.4 9.7 0.00 1.19 0.20 95 1012.3
20260510010025 10 210 4.8 9.7 0.00 1.19 0.20 95 1012.3
20260510005504 10 198 3.2 6.4 0.00 1.19 0.20 95 1012.2
20260510005004 10 204 3.2 11.3 0.00 1.19 0.20 94 1012.2
20260510004525 10 212 6.4 11.3 0.00 1.19 0.20 94 1012.2
20260510004004 10 221 6.4 11.3 0.00 1.19 0.20 94 1012.5
20260510003504 10 222 6.4 12.9 0.00 1.19 0.20 94 1012.7
20260510003004 10 211 6.4 12.9 0.00 1.19 0.20 95 1012.5
20260510002504 10 208 8.0 16.1 0.03 1.19 0.20 95 1012.5
20260510002004 10 215 9.7 16.1 0.03 1.19 0.20 95 1012.6
20260510001504 10 215 9.7 20.9 0.03 1.19 0.20 95 1012.7
20260510001004 10 208 9.7 20.9 0.03 1.19 0.20 95 1012.3
20260510000504 10 208 9.7 17.7 0.05 1.19 0.20 95 1012.6
20260510000004 10 225 8.0 27.4 0.08 1.19 0.20 95 1012.6
20260509235525 10 229 11.3 27.4 0.13 1.19 0.20 95 1012.6
20260509235004 10 223 11.3 24.1 0.15 1.19 0.20 95 1012.6
20260509234504 10 212 8.0 20.9 0.20 1.19 0.20 96 1012.7
20260509234004 10 209 6.4 12.9 0.20 1.19 0.20 96 1012.5
20260509233504 10 209 4.8 12.9 0.20 1.19 0.20 96 1012.8
20260509233004 10 208 8.0 17.7 0.20 1.19 0.20 96 1012.5
20260509232504 10 208 9.7 17.7 0.18 1.17 0.18 95 1012.8
20260509232004 10 208 8.0 16.1 0.18 1.17 0.18 95 1012.8
20260509231525 10 211 6.4 12.9 0.18 1.17 0.18 95 1012.7
20260509231004 10 222 11.3 27.4 0.18 1.17 0.18 95 1012.7
20260509230504 10 221 11.3 27.4 0.15 1.14 0.15 95 1012.7
20260509230004 10 207 8.0 20.9 0.13 1.12 0.13 95 1013.1
20260509225504 10 202 9.7 20.9 0.08 1.07 0.08 94 1012.8
20260509225025 10 198 8.0 16.1 0.05 1.04 0.05 94 1012.8
20260509224504 10 217 4.8 14.5 0.00 0.99 0.00 94 1012.5
20260509224005 10 230 4.8 12.9 0.00 0.99 0.00 94 1012.3
20260509223504 10 229 3.2 9.7 0.00 0.99 0.00 94 1012.2
20260509223004 10 238 3.2 9.7 0.00 0.99 0.00 95 1012.5
20260509222504 10 241 1.6 4.8 0.00 0.99 0.00 95 1012.7
20260509222025 10 220 1.6 4.8 0.00 0.99 0.00 95 1012.6
20260509221504 10 203 1.6 6.4 0.03 0.99 0.00 95 1012.2
20260509221004 10 209 1.6 6.4 0.03 0.99 0.00 95 1012.2
20260509220504 10 220 3.2 9.7 0.03 0.99 0.00 94 1012.2
20260509220004 10 239 4.8 12.9 0.03 0.99 0.00 94 1012.1
20260509215525 10 253 8.0 12.9 0.05 0.99 0.99 94 1011.8
20260509215004 10 252 8.0 17.7 0.08 0.99 0.99 94 1011.8
20260509214504 10 248 8.0 17.7 0.10 0.99 0.99 94 1012.0
20260509214004 10 255 9.7 17.7 0.15 0.99 0.99 94 1012.0
20260509213525 10 260 8.0 14.5 0.23 0.99 0.99 95 1011.8
20260509213004 10 255 9.7 17.7 0.23 0.99 0.99 95 1011.6
20260509212504 10 253 11.3 17.7 0.23 0.99 0.99 95 1011.8
20260509212004 10 255 11.3 24.1 0.23 0.99 0.99 94 1011.8